Flag for Germany Weather past 2 weeks in Wiesbaden, Hesse, Germany

Now
39 °F

Light rain. Overcast.


Feels Like: 39 °F
Forecast: 30 / 45 °F
Wind: 2 mph from Northeast

Location: Wiesbaden Airport

Current Time: Feb 27, 2015 at 7:41:03 AM

Latest Report: Feb 27, 2015 at 6:58 AM


Visibility: N/A

Pressure: 29.82 "Hg

Humidity: 87%

Dew point: 36 °F

Location of WiesbadenLocation

Historic Weather in Wiesbaden — Graph

°F

Wiesbaden temperature yesterday

Maximum temperature yesterday: 46 °F (at 3:58 PM)
Minimum temperature yesterday: 37 °F (at 8:58 AM)
Average temperature yesterday: 42 °F

Past Weeks' High & Low Weather Summary

 TemperatureHumidityPressure
High52 °F (Feb 20, 1:58 PM)100% (Feb 12, 6:58 AM)30.78 "Hg (Feb 12, 6:58 AM)
Low27 °F (Feb 15, 7:58 AM)50% (Feb 20, 5:58 PM)29.47 "Hg (Feb 21, 6:58 AM)
Average37 °F85%30.05 "Hg
* Reported Feb 12 5:58 AM — Feb 27 5:58 AM, Wiesbaden, Weather by CustomWeather, © 2015

Note: Actual official high and low records may vary slightly from our data, if they occured in-between our weather recording intervals... More about our weather records

Advertising

Wiesbaden weather history for previous 24 hours

 ConditionsComfort  
Time TempWeatherWind HumidityBarometerVisibility
5:58 AM
Fri, Feb 27
41 °FLight rain. Overcast.8 mph76%29.83 "HgN/A
4:58 AM39 °FLight rain. Overcast.6 mph87%29.81 "HgN/A
3:58 AM40 °FLight rain. Overcast.5 mph82%29.82 "HgN/A
1:58 AM41 °FLight rain. Overcast.3 mph70%29.86 "HgN/A
12:58 AM42 °FOvercast.2 mph69%29.88 "HgN/A
11:58 PM
Thu, Feb 26
43 °FMostly cloudy.8 mph62%29.89 "HgN/A
10:58 PM43 °FMostly cloudy.8 mph71%29.91 "HgN/A
9:58 PM43 °FOvercast.3 mph71%29.93 "HgN/A
8:58 PM45 °FOvercast.5 mph66%29.95 "HgN/A
7:58 PM43 °FOvercast.6 mph76%29.97 "HgN/A
6:58 PM45 °FOvercast.3 mph71%30.00 "HgN/A
5:58 PM46 °FOvercast.No wind62%30.01 "HgN/A
4:58 PM46 °FOvercast.3 mph71%30.03 "HgN/A
3:58 PM46 °FOvercast.5 mph69%30.05 "HgN/A
2:58 PM45 °FOvercast.5 mph81%30.07 "HgN/A
1:58 PM44 °FCloudy.2 mph85%30.09 "HgN/A
12:58 PM45 °FMostly cloudy.6 mph81%30.12 "HgN/A
12:04 PM43 °FOvercast.5 mph81%30.12 "HgN/A
11:58 AM43 °FOvercast.6 mph87%30.14 "HgN/A
10:58 AM40 °FOvercast.6 mph87%30.16 "HgN/A
9:58 AM39 °FOvercast.5 mph90%30.17 "HgN/A
8:58 AM37 °FMostly cloudy.7 mph93%30.17 "HgN/A
7:58 AM38 °FOvercast.3 mph96%30.18 "HgN/A
Weather by CustomWeather, © 2015

See weather overviewHow to use our weather pages